Regional Weather Roundup
Issued by NWS

Home | Current Version | Previous Version | Text Only | Print | Product List | Glossary On
Versions: 1 2 3 4 5 6 7 8 9 10 11 12 13 14 15 16 17 18 19 20 21 22 23 24 25 26 27
000
ASUS45 KBOU 232107
RWRCO

WEATHER ROUNDUP FOR COLORADO
NATIONAL WEATHER SERVICE DENVER/BOULDER CO
200 PM MST MON JAN 23 2017

NOTE: "FAIR" INDICATES FEW OR NO CLOUDS BELOW 12000 FEET WITH NO
SIGNIFICANT WEATHER AND/OR OBSTRUCTIONS TO VISIBILITY.

COZ001>005-013-030-031-232200-
...NORTHWEST COLORADO...

CITY           SKY/WX    TMP DP  RH WIND       PRES   REMARKS
CRAIG          FAIR      39  24  55 SW16G24   29.50F
HAYDEN         CLOUDY    37  25  60 NE8       29.51F
MEEKER         FAIR      39  28  64 SW17G33   29.50F
MOUNT WERNER   NOT AVBL
STEAMBOAT SPGS NOT AVBL
WALDEN           N/A     30  25  80 S7        29.54F WCI  23
$$

COZ006>008-011-232200-
...WEST CENTRAL VALLEYS...

CITY           SKY/WX    TMP DP  RH WIND       PRES   REMARKS
GRAND JUNCTION FAIR      50  29  44 S23G33    29.51F
MONTROSE       LGT RAIN  45  27  49 SW30G37   29.60F
EAGLE          PTSUNNY   36  28  75 W15G24    29.58F VSB 3/4
RIFLE          LGT RAIN  39  34  82 N3        29.53F
DELTA          CLOUDY    50  31  48 SW16G30   29.59F
NUCLA          CLOUDY    41  30  65 SW22G37   29.63F
$$

COZ017>023-064>068-232200-
...SOUTHWEST COLORADO...

CITY           SKY/WX    TMP DP  RH WIND       PRES   REMARKS
DURANGO        CLOUDY    31  27  85 NE5       29.74F WCI  26
CORTEZ         CLOUDY    37  34  89 NW5       29.70F
PAGOSA SPRINGS SNOW      30  28  92 NW3       29.75F VSB 1/2
TELLURIDE      LGT SNOW N/A N/A N/A SW32G54   29.65F
WOLF CREEK PAS CLOUDY    14  14 100 SW26G40   29.68F WCI  -6
$$

COZ009-010-012-014-032>034-037-058>063-232200-
...CENTRAL COLORADO...

CITY           SKY/WX    TMP DP  RH WIND       PRES   REMARKS
ASPEN          LGT SNOW  31  28  89 SE10      29.56F FOG     WCI  22
BUENA VISTA    CLOUDY    32  23  71 SE20      29.58F WCI  20
COPPER MTN     LGT SNOW  23  16  74 MISG      29.58F VSB 3/4
BERTHOUD PASS  CLOUDY    14   3  62 MISG      29.55F
COTTONWOOD PAS FLURRIES  30  21  69 S12G24    29.58F WCI  21
GUNNISON       PTSUNNY   32  22  66 N3        29.61F
KREMMLING      PTSUNNY   41  30  65 W13G18    29.56F
LEADVILLE      LGT SNOW  24  20  84 SW5       29.56F VSB 1   WCI  18
MONARCH PASS   CLOUDY    19  18  93 SW14G33   29.69F WCI   6
SALIDA         CLOUDY    38  23  54 S13G23    29.66F
SUNLIGHT         N/A     21  19  93 SW22G40   29.58S WCI   5
WILKERSON PASS LGT SNOW N/A N/A N/A S8G23     29.62F
$$

COZ069>075-232200-
...SAN LUIS VALLEY/SANGRE DE CRISTO MOUNTAINS...

CITY           SKY/WX    TMP DP  RH WIND       PRES   REMARKS
ALAMOSA        CLOUDY    35  28  75 S21       29.69F WCI  24
LA VETA PASS   CLOUDY    27  21  80 NE24G51   29.63F FOG     WCI  12
SAGUACHE       CLOUDY    32  23  69 CALM      29.66F
$$

COZ035-036-038>040-232200-
...NORTHERN COLORADO FRONT RANGE...

CITY           SKY/WX    TMP DP  RH WIND       PRES   REMARKS
DENVER INTL AP PTSUNNY   53  19  26 W8        29.50F
DMNS CITY PARK   N/A     54  16  21 SE8       29.49F
AURORA         PTSUNNY   52  17  25 SW12G18   29.51F
FRONT RANGE AP PTSUNNY   54  23  30 W8        29.51
ERIE MUNI ARPT FAIR      51  19  28 CALM      29.51F
BOULDER MUN AP PTSUNNY   50  25  37 S7        29.51S
CENTENNIAL     PTSUNNY   48  22  35 SW26      29.52F
BROOMFIELD     PTSUNNY   50  21  32 SW7       29.52F
FORT COLLINS   NOT AVBL
LONGMONT       CLOUDY    54  23  29 S10G16    29.51F
$$

COZ041-046-047-076>085-087-088-232200-
...PIKES PEAK/PALMER DIVIDE AND SOUTHERN FOOTHILLS...

CITY           SKY/WX    TMP DP  RH WIND       PRES   REMARKS
COLO. SPRINGS  FAIR      47  16  29 S21G28    29.58F
A. F. ACADEMY  PTSUNNY   50  14  24 S16       29.54F
SCHRIEVER AFB  FAIR      48  16  27 SW14G32   29.58
ELLICOTT       FAIR     N/A N/A N/A SW17      29.57F
FALCON         PTSUNNY   47  14  26 S22G35    29.59F
FORT CARSON    NOT AVBL
LIMON          FAIR      54  17  23 SW20G32   29.52F
MONUMENT HILL  PTSUNNY   43  18  36 SW12G17   29.58F
TRINIDAD       FAIR      46  23  40 SW25G38   29.65F
$$

COZ042>045-048>051-090-091-232200-
...NORTHEAST COLORADO...

CITY           SKY/WX    TMP DP  RH WIND       PRES   REMARKS
GREELEY ARPT   FAIR      48  25  40 E6        29.52F
AKRON          FAIR      50  21  32 VRB5      29.53F
BURLINGTON     FAIR      54  29  38 S8        29.55F
WRAY           FAIR      50  27  40 CALM      29.56F
STERLING       FAIR      45  27  49 CALM      29.53F
HOLYOKE        FAIR      52  28  40 CALM      29.55F
FORT MORGAN    FAIR      46  24  43 E3        29.53F
$$

COZ086-089-092>099-232200-
...SOUTHEAST COLORADO...

CITY           SKY/WX    TMP DP  RH WIND       PRES   REMARKS
PUEBLO         FAIR      58  24  27 SW25G40   29.55F
LA JUNTA       FAIR      54  30  40 SW15      29.58F
LAMAR          FAIR      61  29  29 W21G31    29.55F
SPRINGFIELD      N/A     63  22  20 SW26G41   29.60F
$$




USA.gov is the U.S. government's official web portal to all federal, state and local government web resources and services.